Location: Gleizolles
(44.4833°N, 6.7667°E)
Time: 09:07:56
(UTC+00:00)

CUTE 1.7 + AOD 2 - Pass Details

Date: 13 May 2021
Orbit: 593 x 611 km, 97.6° (Epoch: 21 June)

Event Time Altitude Azimuth Distance (km) Brightness Sun altitude
Rises 03:12:44 0° 25° (NNE) 2,842 ? -9.1°
Reaches altitude 10° 03:15:16 10° 40° (NE) 1,934 ? -8.8°
Maximum altitude 03:18:40 24° 94° (E) 1,253 ? -8.3°
Drops below altitude 10° 03:22:03 10° 148° (SSE) 1,922 ? -7.8°
Sets 03:24:33 0° 163° (SSE) 2,820 ? -7.4°
